GPS BIIRM-5 (PRN 29)

Last updated on Mon Sep 15 2025 00:03:16 GMT+0000 (Coordinated Universal Time)

1 32384U 07062A 25256.99357348 .00000006 00000+0 00000+0 0 9997 2 32384 55.2561 285.2446 0032603 163.3400 312.8026 2.00572838129973
UTC large
Height (km)
Speed (km/s)
/
Latitude / Longitude
Inclination (degrees)
Orbital Period (minutes)
Azimuth
Elevation
Range (km)
Doppler Factor

Next 0 passes for location: London (51.5072 / 0.1276)

Sorry there are no passes over London.